Погода в Тюмени

Погода в Тюмени : погода сейчас, прогноз погоды и архив. Всё, что Вы хотите узнать о погоде в Тюмени!

Хотите узнать прогноз погоды в Тюмени? Тогда Вам сюда: Погода в Тюмени

Поиск расширенной информации на нашем сайте:

Другие новости

Новости СМИ2

Главная страница сайта

Новости сайта

03.07.2017

Напоминаем, что на нашем специализированном сайте Метеоцентр.Азия вы можете получить высокодетализированные автоматические прогнозы погоды по пунктам России, СНГ и мира в авиационном формате (включающие направление и скорость ветра, видимость, явления погоды, количество и форму облачности, нижнюю и верхнюю границу облачности).


Погода в Тюмени - сегодня

Время (UTC), дата Ветер
(°,м/с) 
Видим.   Явления Облачность Т
(°С)
Тd
(°С)
f(%) Тe
(°С)
Pmin
(гПа)
dP
(гПа)
Po
(мм)
O2
(г/м3)
Тmin Tmax R s Состояние
почвы
18 15.08.18 340 (С) 4000 м  ливневой дождь{гроза}  10/10 600 м кучево-дожд. 
[Cb cap]
+16.1 +16 99 +27  1007.5  0.2  747  281           
21 15.08.18 330 (СЗ) 20000 м  {ливн. осадки}  10/10 300 м 
[St]
+14.6 +14.4 99 +23  1008.4  0.9  747  283           
00 16.08.18 320 (СЗ) 4000 м  {ливн. осадки}  10/10 300 м 
[St]
+14.3 +13.6 96 +20  1009.7  1.2  748  284           
03 16.08.18 330 (СЗ) 4000 м    4/3 300 м средняя 
[St|Ac As]
+14.9 +13.2 90 +21  1011  1.3  749  284  +14.1    17     
06 16.08.18 320 (СЗ) 4000 м    4/1 600 м средняя, верхняя 
[Cu hum|Ac trans|Ci fib]
+19.4 +12.2 63 +24  1011.6  0.7  750  280           
09 16.08.18 310 (СЗ) 4000 м    5/4 600 м верхняя 
[Cu med, cong|Ci sp]
+21 +10.8 52 +23  1012  0.5  750  279           
12 16.08.18 290 (З) 4000 м    6/4 600 м средняя, верхняя 
[Cu med, cong|Ac trans|Ci sp]
+22.1 +10.4 47 +24  1012.2  0.2  750  278           
18 16.08.18 180 (Ю) 20000 м  {дождь}  10/0 средняя 
[Ac As]
+17 +13.8 81 +25  1011.3  -0.7  750  282           
21 16.08.18 180 (Ю) 20000 м    10/0 средняя 
[Ac As]
+16.7 +13.6 82 +24  1009.3  -2  748  281           
00 17.08.18 160 (Ю) 20000 м  в посл. час ливневой дождь  10/5 600 м кучево-дожд., средняя 
[Cb cap|Ac As]
+15.5 +14.8 96 +24  1007.7  -1.7  747  282           
03 17.08.18 180 (Ю) 4000 м    9/4 600 м средняя, верхняя 
[Sc|Ac trans|Ci fib]
+16.8 +15.4 91 +28  1006.4  -1.3  746  280  +15.1       
06 17.08.18 220 (ЮЗ) 4000 м    10/4 600 м кучево-дожд., средняя 
[Cb calv|Ac As]
+19.1 +16.2 83 +31  1005.8  -0.4  746  277           
09 17.08.18 240 (ЮЗ) 4000 м  {ливн. осадки}  8/3 600 м кучево-дожд., средняя, верхняя 
[Cb calv|Ac trans|Ci fib]
+21.4 +14.3 64 +29  1004.9  -0.8  745  275           
15 17.08.18 280 (З) 3{11}  4000 м    10/10 600 м кучево-дожд. 
[Cb cap]
+14.8 +12.3 85 +19  1008.6  1.3  748  283    +22  0.0     
18 17.08.18 270 (З) 20000 м    10/10 420 м 
[St]
+13.8 +11.1 84 +16  1009.1  0.4  748  285           
21 17.08.18 280 (З) 20000 м    10/10 500 м 
[Sc]
+12.5 +9.8 84 +13  1009.3  -0.1  748  286           
00 18.08.18 280 (З) 20000 м    10/10 400 м 
[Sc]
+11.4 +9.4 87 +11  1010  0.6  748  288           
03 18.08.18 280 (З) 4000 м  {морось}  10/10 330 м 
[St]
+12.1 +9.6 85 +13  1011  749  287  +11.3    0.0     
15 18.08.18 330 (СЗ) 4000 м  {морось}  10/8 600 м средняя 
[Sc|Ac trans]
+12.6 +9.5 81 +12  1016.1  753  288    +13.7  0.0     
18 18.08.18 300 (СЗ) 20000 м    8/0 средняя 
[Ac trans]
+11 +9.7 92 +13  1016.8  0.6  753  290           
21 18.08.18 300 (СЗ) 20000 м    4/0 средняя, верхняя 
[Ac trans|Ci fib]
+10.1 +9.1 93 +10  1017.1  0.2  754  291           
00 19.08.18 320 (СЗ) 20000 м    3/0 средняя 
[Ac trans]
+7.4 +6.9 97 +7  1017.3  0.1  754  295           
03 19.08.18 330 (СЗ) 4000 м    4/0 средняя 
[Ac trans]
+9.8 +8.1 89 +10  1017.8  0.6  754  292  +7         
06 19.08.18 340 (С) 4000 м    8/8 1000 м 
[Cu med, cong]
+13.2 +9.2 77 +14  1017.1  -0.5  754  288           
09 19.08.18 010 (С) 4000 м    8/8 600 м 
[Frnb]
+13.1 +9.4 78 +14  1017.3  0.2  754  288           
Время (UTC), дата Ветер
(°,м/с) 
Видим.   Явления Облачность Т
(°С)
Тd
(°С)
f(%) Тe
(°С)
Pmin
(гПа)
dP
(гПа)
Po
(мм)
O2
(г/м3)
Тmin Tmax R s Состояние
почвы

Для получения пояснительной информации подведите курсор к названию столбца.

ПОГОДА в Тюмени - архив

Всё, что Вы хотите узнать о погоде в Тюмени - удобно и подробно!

Выберите нужную дату (начиная с 1 января 2015* года) и нажмите кнопку "Найти".
Будут отображены архивные сводки погоды по пункту Тюмень, начиная с указанной даты.


Отображать данные в формате CSV (для использования в таблицах Excel)


Внимание! Наш архив погоды предназначен исключительно для личного некоммерческого использования в познавательных целях. Если Вам необходимы официальные справки о состоянии погоды (для производственных, юридических, коммерческих и т.п. целей), обращайтесь в органы Росгидромета.

*Примечание: данная дата относится к архиву по метеостанциям СССР (Россия, СНГ, Балтия).
Архив по метеостанциям Зарубежной Европы и Азии (кроме Китая) хранится 10 дней, по другим регионам земного шара (Китай, Африка, Америка, Австралия, Океания) - 1 день.

Тюмень - район местоположения метеостанции


Название, широта, долгота, высота метеостанции:
Тюмень 57.1°ш. 65.4°д. 102 м над ур. моря [Российская Федерация]

Дополнительная информация

В oтличие oт бoльшинства пoгoдных сайтoв мы публикуем пoдрoбную метеoинфoрмацию в детальнoм прoфессиoнальнoм фoрмате.

Характеристики температуры и влажнoсти вoздуха измеряются на высoте 2 м в тени вдали oт зданий и деревьев.
Скoрoсть ветра измеряется на высoте 10 м (на урoвне рoста челoвека скoрoсть ветра ниже в 1.5-2 раза). Если метеoстанция нахoдится в гoрoде или в лесу, тo скoрoсть ветра занижена на 2-4 м/с пo сравнению с oткрытым местoм. Скoрoсть ветра над акватoриями крупных рек и oзёр, а также на вершинах хoлмoв на 2-5 м/с выше, чем в oбычных услoвиях.
Атмoсфернoе давление в разных тoчках местнoсти мoжет значительнo oтличаться oт давления на метеoстанции, в зависимoсти oт услoвий рельефа (при пoдъёме на 10 м давление пoнижается примернo на 1 мм рт.ст.).